Location: Unspecified
(0.0000°N, 0.0000°E)
Time: 16:08:07
(UTC+00:00)

AO-85 - Pass Details

Date: 04 December 2021
Orbit: 521 x 762 km, 64.8° (Epoch: 12 March)

Event Time Altitude Azimuth Distance (km) Brightness Sun altitude
Exits shadow 04:33:54 15° 235° (SW) 1,645 ? -17.6°
Drops below altitude 10° 04:35:37 10° 212° (SSW) 1,915 ? -17.2°
Sets 04:38:33 0° 189° (S) 2,769 ? -16.5°
